FW5374 Weather Reports


time (UTC)temp
C
wind
direction
speed
KPH
gust
KPH
rain 1hr
cm
rain 24hr
cm
rain mn
cm
humidity
%
barometer
mb
20260503045406 16 195 0.0 4.8 0.00 0.00 0.00 64 1011.8
20260503044406 16 209 3.2 4.8 0.00 0.00 0.00 64 1011.8
20260503043907 16 207 4.8 8.0 0.00 0.00 0.00 64 1011.7
20260503042406 17 164 3.2 8.0 0.00 0.00 0.00 62 1011.6
20260503041906 17 204 4.8 8.0 0.00 0.00 0.00 62 1011.5
20260503040906 18 196 4.8 4.8 0.00 0.00 0.00 59 1011.4
20260503035906 18 148 3.2 8.0 0.00 0.00 0.00 59 1011.3
20260503035406 18 192 8.0 9.7 0.00 0.00 0.00 59 1011.2
20260503033906 19 201 4.8 8.0 0.00 0.00 0.00 57 1010.9
20260503033407 19 152 4.8 9.7 0.00 0.00 0.00 55 1010.8
20260503032906 20 159 4.8 9.7 0.00 0.00 0.00 56 1010.7
20260503032407 20 211 3.2 4.8 0.00 0.00 0.00 56 1010.6
20260503031906 20 148 3.2 4.8 0.00 0.00 0.00 54 1010.5
20260503031406 21 186 0.0 4.8 0.00 0.00 0.00 54 1010.5
20260503030906 21 186 3.2 4.8 0.00 0.00 0.00 52 1010.4
20260503030406 21 197 3.2 4.8 0.00 0.00 0.00 52 1010.3
20260503025906 21 203 4.8 8.0 0.00 0.00 0.00 51 1010.2
20260503024905 22 160 3.2 4.8 0.00 0.00 0.00 50 1010.2
20260503023906 22 212 8.0 8.0 0.00 0.00 0.00 49 1010.1
20260503023406 23 205 8.0 19.3 0.00 0.00 0.00 47 1010.1
20260503022906 23 159 6.4 11.3 0.00 0.00 0.00 46 1010.1
20260503021905 23 191 8.0 11.3 0.00 0.00 0.00 42 1010.0
20260503021406 24 175 4.8 9.7 0.00 0.00 0.00 40 1009.9
20260503020906 25 190 6.4 9.7 0.00 0.00 0.00 39 1010.0
20260503020406 25 152 6.4 14.5 0.00 0.00 0.00 39 1009.9
20260503015905 26 172 6.4 9.7 0.00 0.00 0.00 37 1009.9
20260503015406 26 148 3.2 4.8 0.00 0.00 0.00 38 1009.8
20260503014905 27 60 0.0 3.2 0.00 0.00 0.00 38 1009.8
20260503014405 27 149 0.0 1.6 0.00 0.00 0.00 37 1009.8
20260503013906 27 149 1.6 4.8 0.00 0.00 0.00 35 1009.8
20260503013405 28 225 1.6 3.2 0.00 0.00 0.00 32 1009.8
20260503012905 28 225 1.6 4.8 0.00 0.00 0.00 32 1009.8
20260503012406 28 190 3.2 4.8 0.00 0.00 0.00 32 1009.9
20260503011905 28 205 6.4 8.0 0.00 0.00 0.00 27 1009.8
20260503011406 29 211 8.0 9.7 0.00 0.00 0.00 28 1009.8
20260503010906 30 204 8.0 9.7 0.00 0.00 0.00 26 1009.9
20260503010406 30 221 6.4 8.0 0.00 0.00 0.00 26 1009.9
20260503005906 30 208 4.8 9.7 0.00 0.00 0.00 28 1009.9
20260503005405 30 238 3.2 4.8 0.00 0.00 0.00 23 1009.9
20260503004906 30 231 4.8 8.0 0.00 0.00 0.00 26 1009.9
20260503004406 31 208 4.8 8.0 0.00 0.00 0.00 23 1010.0
20260503003906 31 230 4.8 9.7 0.00 0.00 0.00 23 1010.0
20260503003405 31 238 4.8 4.8 0.00 0.00 0.00 21 1010.1
20260503002905 31 296 1.6 4.8 0.00 0.00 0.00 20 1010.1
20260503002405 31 277 1.6 4.8 0.00 0.00 0.00 21 1010.1
20260503001905 31 19 1.6 3.2 0.00 0.00 0.00 22 1010.1
20260503001406 31 329 1.6 4.8 0.00 0.00 0.00 22 1010.2
20260503000905 31 349 3.2 4.8 0.00 0.00 0.00 21 1010.1
20260503000407 31 256 1.6 4.8 0.00 0.00 0.00 22 1010.1
20260502235906 31 77 3.2 4.8 0.00 0.00 0.00 22 1010.1
20260502235405 31 341 3.2 4.8 0.00 0.00 0.00 21 1010.2
20260502234906 31 309 3.2 8.0 0.00 0.00 0.00 21 1010.2
20260502234408 31 0 0.0 4.8 0.00 0.00 0.00 21 1010.2
20260502233905 32 5 4.8 9.7 0.00 0.00 0.00 21 1010.3
20260502233405 32 297 1.6 4.8 0.00 0.00 0.00 22 1010.3
20260502232906 31 248 1.6 8.0 0.00 0.00 0.00 22 1010.3
20260502232405 31 80 1.6 4.8 0.00 0.00 0.00 21 1010.4
20260502231905 31 36 3.2 4.8 0.00 0.00 0.00 22 1010.5
20260502231405 31 129 0.0 4.8 0.00 0.00 0.00 22 1010.6
20260502230906 31 38 4.8 11.3 0.00 0.00 0.00 22 1010.6
20260502230405 31 296 3.2 4.8 0.00 0.00 0.00 21 1010.6
20260502225906 30 359 1.6 4.8 0.00 0.00 0.00 23 1010.7
20260502225405 30 329 3.2 11.3 0.00 0.00 0.00 23 1010.8
20260502224906 30 5 0.0 4.8 0.00 0.00 0.00 22 1010.8
20260502224405 30 4 4.8 8.0 0.00 0.00 0.00 22 1010.9
20260502223905 30 10 3.2 4.8 0.00 0.00 0.00 23 1010.9
20260502223405 31 348 3.2 8.0 0.00 0.00 0.00 23 1011.0
20260502222405 30 18 3.2 4.8 0.00 0.00 0.00 23 1011.2
20260502221405 30 7 3.2 4.8 0.00 0.00 0.00 24 1011.4
20260502220906 30 293 1.6 4.8 0.00 0.00 0.00 25 1011.4
20260502215905 30 327 3.2 9.7 0.00 0.00 0.00 24 1011.6
20260502215406 31 343 4.8 9.7 0.00 0.00 0.00 22 1011.7
20260502214906 31 307 3.2 4.8 0.00 0.00 0.00 21 1011.8
20260502214406 31 192 1.6 4.8 0.00 0.00 0.00 25 1011.8
20260502213906 30 127 3.2 4.8 0.00 0.00 0.00 26 1011.8
20260502213406 30 20 4.8 8.0 0.00 0.00 0.00 25 1011.9
20260502212906 30 126 0.0 3.2 0.00 0.00 0.00 29 1011.9
20260502211906 29 37 1.6 4.8 0.00 0.00 0.00 31 1012.1
20260502211406 29 50 1.6 4.8 0.00 0.00 0.00 32 1012.1
20260502210906 28 19 3.2 4.8 0.00 0.00 0.00 33 1012.2
20260502210406 28 349 3.2 4.8 0.00 0.00 0.00 33 1012.3
20260502205907 28 68 3.2 4.8 0.00 0.00 0.00 35 1012.3
20260502205406 28 275 3.2 9.7 0.00 0.00 0.00 37 1012.4
20260502204907 27 260 1.6 8.0 0.00 0.00 0.00 38 1012.4
20260502204406 27 314 3.2 8.0 0.00 0.00 0.00 39 1012.5
20260502203907 27 220 6.4 11.3 0.00 0.00 0.00 40 1012.5
20260502203407 27 200 8.0 12.9 0.00 0.00 0.00 40 1012.6
20260502202907 27 187 4.8 11.3 0.00 0.00 0.00 43 1012.6
20260502202406 27 201 3.2 8.0 0.00 0.00 0.00 42 1012.7
20260502201907 27 201 4.8 8.0 0.00 0.00 0.00 41 1012.8
20260502201406 27 212 3.2 4.8 0.00 0.00 0.00 43 1012.8
20260502200906 27 237 3.2 4.8 0.00 0.00 0.00 42 1012.8
20260502200407 26 224 4.8 11.3 0.00 0.00 0.00 44 1012.9
20260502195906 26 262 1.6 4.8 0.00 0.00 0.00 45 1013.0
20260502195406 26 235 1.6 4.8 0.00 0.00 0.00 45 1013.0
20260502193907 25 95 1.6 3.2 0.00 0.00 0.00 46 1013.2
20260502193406 25 105 1.6 3.2 0.00 0.00 0.00 45 1013.3
20260502192907 25 33 3.2 4.8 0.00 0.00 0.00 45 1013.4
20260502192407 25 60 1.6 4.8 0.00 0.00 0.00 45 1013.4
20260502191906 25 106 3.2 4.8 0.00 0.00 0.00 46 1013.4
20260502191406 25 180 4.8 11.3 0.00 0.00 0.00 46 1013.5
20260502190907 24 178 3.2 4.8 0.00 0.00 0.00 47 1013.5
20260502190406 24 258 3.2 4.8 0.00 0.00 0.00 46 1013.7
20260502185906 24 198 1.6 8.0 0.00 0.00 0.00 45 1013.7
20260502185407 24 211 6.4 9.7 0.00 0.00 0.00 45 1013.8
20260502184907 24 198 1.6 8.0 0.00 0.00 0.00 45 1013.8
20260502184406 24 159 1.6 9.7 0.00 0.00 0.00 44 1013.9
20260502183906 24 100 6.4 9.7 0.00 0.00 0.00 45 1014.0
20260502183406 23 110 3.2 9.7 0.00 0.00 0.00 46 1014.1
20260502182406 23 320 1.6 3.2 0.00 0.00 0.00 46 1014.2
20260502181906 23 321 3.2 4.8 0.00 0.00 0.00 45 1014.3
20260502181407 23 92 3.2 9.7 0.00 0.00 0.00 46 1014.3
20260502180906 23 164 1.6 4.8 0.00 0.00 0.00 46 1014.4
20260502180406 22 122 3.2 8.0 0.00 0.00 0.00 46 1014.4
20260502170406 20 149 4.8 4.8 0.00 0.00 0.00 50 1014.9
20260502163906 19 151 1.6 8.0 0.00 0.00 0.00 53 1015.2
20260502163405 18 120 4.8 9.7 0.00 0.00 0.00 53 1015.2
20260502162906 18 174 1.6 4.8 0.00 0.00 0.00 54 1015.3
20260502162405 18 141 3.2 11.3 0.00 0.00 0.00 54 1015.3
20260502161905 17 123 6.4 11.3 0.00 0.00 0.00 56 1015.3
20260502161406 18 165 6.4 9.7 0.00 0.00 0.00 55 1015.4
20260502160905 17 119 3.2 4.8 0.00 0.00 0.00 58 1015.4
20260502160406 17 147 4.8 8.0 0.00 0.00 0.00 56 1015.5
20260502151906 13 127 3.2 4.8 0.00 0.00 0.00 70 1015.6
20260502151405 13 142 1.6 4.8 0.00 0.00 0.00 73 1015.6
20260502150906 12 115 3.2 4.8 0.00 0.00 0.00 74 1015.6
20260502150406 11 122 1.6 4.8 0.00 0.00 0.00 76 1015.8
20260502123406 7 175 1.6 3.2 0.00 0.00 0.00 83 1015.1
20260502122906 7 176 3.2 3.2 0.00 0.00 0.00 83 1015.0
20260502122407 8 176 0.0 0.0 0.00 0.00 0.00 82 1015.0
20260502121907 8 175 1.6 4.8 0.00 0.00 0.00 82 1015.0
20260502121406 8 190 3.2 4.8 0.00 0.00 0.00 83 1014.9
20260502120407 7 159 1.6 4.8 0.00 0.00 0.00 82 1014.9
20260502115906 7 175 3.2 4.8 0.00 0.00 0.00 83 1014.9
20260502115406 8 145 0.0 3.2 0.00 0.00 0.00 83 1015.1
20260502114907 8 145 3.2 4.8 0.00 0.00 0.00 82 1015.1
20260502114406 8 203 0.0 3.2 0.00 0.00 0.00 83 1015.1
20260502113906 8 203 3.2 4.8 0.00 0.00 0.00 82 1015.1
20260502113407 8 168 0.0 3.2 0.00 0.00 0.00 82 1015.1
20260502112906 8 164 1.6 4.8 0.00 0.00 0.00 82 1015.1
20260502112407 8 191 6.4 9.7 0.00 0.00 0.00 82 1015.1
20260502111907 8 174 8.0 12.9 0.00 0.00 0.00 82 1015.0
20260502110407 8 167 3.2 4.8 0.00 0.00 0.00 81 1015.0
20260502105907 8 197 1.6 4.8 0.00 0.00 0.00 80 1015.1
20260502104907 8 181 4.8 14.5 0.00 0.00 0.00 80 1015.0
20260502104407 8 166 4.8 9.7 0.00 0.00 0.00 80 1015.0
20260502103406 8 170 8.0 9.7 0.00 0.00 0.00 80 1015.0
20260502102907 8 168 8.0 11.3 0.00 0.00 0.00 80 1015.0
20260502102406 8 197 8.0 9.7 0.00 0.00 0.00 81 1015.0
20260502101907 8 165 8.0 9.7 0.00 0.00 0.00 81 1015.0
20260502100907 8 173 9.7 14.5 0.00 0.00 0.00 80 1014.9
20260502100406 9 165 8.0 11.3 0.00 0.00 0.00 80 1015.0
20260502091406 9 190 0.0 1.6 0.00 0.00 0.00 79 1014.9
20260502090406 10 190 0.0 4.8 0.00 0.00 0.00 78 1014.9
20260502070906 11 168 3.2 4.8 0.00 0.00 0.00 76 1014.6
20260502065906 11 164 3.2 8.0 0.00 0.00 0.00 76 1014.6
20260502065405 11 171 1.6 3.2 0.00 0.00 0.00 76 1014.5
20260502064906 11 171 1.6 4.8 0.00 0.00 0.00 76 1014.5
20260502064410 11 179 0.0 0.0 0.00 0.00 0.00 75 1014.4
20260502063406 11 179 0.0 0.0 0.00 0.00 0.00 75 1014.4
20260502062906 11 179 0.0 0.0 0.00 0.00 0.00 75 1014.4
20260502061905 12 179 0.0 3.2 0.00 0.00 0.00 73 1014.4
20260502061405 12 178 3.2 3.2 0.00 0.00 0.00 73 1014.3
20260502060906 12 176 1.6 4.8 0.00 0.00 0.00 73 1014.3
20260502055905 13 190 0.0 3.2 0.00 0.00 0.00 71 1014.3
20260502054406 13 198 0.0 1.6 0.00 0.00 0.00 70 1014.3
20260502053406 13 198 0.0 3.2 0.00 0.00 0.00 69 1014.2
20260502052905 13 198 3.2 4.8 0.00 0.00 0.00 68 1014.2
20260502051905 14 201 3.2 4.8 0.00 0.00 0.00 67 1014.1
20260502051406 14 186 1.6 4.8 0.00 0.00 0.00 66 1014.2